This is the latest recevied weather packets stored in our database for station/object WX1NWA. If no packets are shown the sender has not sent any weather packets the latest 10 day(s).
| Time | Temp. | Humidity | Pressure | Rain* | Wind** | Luminosity | Snow |
|---|---|---|---|---|---|---|---|
| 1777912858 | 21.67° C | 55% | 1013.9 hPa | 0 mm | - | 774 W/m² | - |
| 1777912554 | 21.67° C | 57% | 1014.3 hPa | 0 mm | - | 784 W/m² | - |
| 1777912251 | 21.67° C | 58% | 1014.1 hPa | 0 mm | - | 786 W/m² | - |
| 1777911947 | 21.11° C | 56% | 1014.4 hPa | 0 mm | - | 810 W/m² | - |
| 1777911643 | 21.11° C | 56% | 1014.3 hPa | 0 mm | - | 826 W/m² | - |
| 1777911339 | 21.67° C | 56% | 1014.5 hPa | 0 mm | - | 817 W/m² | - |
| 1777911037 | 21.11° C | 56% | 1014.1 hPa | 0 mm | - | 799 W/m² | - |
| 1777910735 | 21.67° C | 55% | 1014.4 hPa | 0 mm | - | 757 W/m² | - |
| 1777910431 | 21.67° C | 53% | 1014.4 hPa | 0 mm | - | 769 W/m² | - |
| 1777910127 | 21.67° C | 56% | 1014.4 hPa | 0 mm | - | 822 W/m² | - |
| 1777909826 | 21.11° C | 55% | 1014.3 hPa | 0 mm | - | 817 W/m² | - |
| 1777909521 | 21.11° C | 57% | 1014 hPa | 0 mm | - | 773 W/m² | - |
| 1777909219 | 21.11° C | 56% | 1014.1 hPa | 0 mm | - | 758 W/m² | - |
| 1777908917 | 21.67° C | 57% | 1014.4 hPa | 0 mm | - | 745 W/m² | - |
| 1777908615 | 21.11° C | 59% | 1014.3 hPa | 0 mm | - | 748 W/m² | - |
| 1777908312 | 20.56° C | 58% | 1014.1 hPa | 0 mm | - | 739 W/m² | - |
| 1777908008 | 20° C | 58% | 1014.5 hPa | 0 mm | - | 718 W/m² | - |
| 1777907703 | 20.56° C | 60% | 1014.6 hPa | 0 mm | - | 718 W/m² | - |
| 1777907398 | 20° C | 59% | 1014.5 hPa | 0 mm | - | 721 W/m² | - |
| 1777907095 | 20° C | 59% | 1014.5 hPa | 0 mm | - | 709 W/m² | - |
| 1777906793 | 19.44° C | 59% | 1014.6 hPa | 0 mm | - | 689 W/m² | - |
| 1777906490 | 19.44° C | 61% | 1014.5 hPa | 0 mm | - | 633 W/m² | - |
| 1777906186 | 19.44° C | 60% | 1014.8 hPa | 0 mm | - | 636 W/m² | - |
| 1777905883 | 19.44° C | 60% | 1014.6 hPa | 0 mm | - | 632 W/m² | - |
| 1777905580 | 19.44° C | 60% | 1014.9 hPa | 0 mm | - | 605 W/m² | - |
* Rain latest hour (hover to see other rain measurements)
** Current wind speed in m/s (hover to see current wind gust speed)